Location: Ermatingen
(47.6706°N, 9.0857°E)
Time: 03:16:31
(UTC+00:00)

Cosmos 1125 Rocket - Pass Details

Date: 18 September 2020
Orbit: 758 x 780 km, 74.0° (Epoch: 24 October)

Event Time Altitude Azimuth Distance (km) Brightness Sun altitude
Rises 18:57:05 0° 173° (S) 3,243 6.5 -15.3°
Reaches altitude 10° 18:59:38 10° 164° (SSE) 2,322 5.7 -15.7°
Maximum altitude 19:04:20 34° 101° (ESE) 1,278 4.1 -16.5°
Drops below altitude 10° 19:09:03 10° 39° (NE) 2,342 5.8 -17.2°
Sets 19:11:38 0° 30° (NNE) 3,275 6.7 -17.6°
